Content
SEND FEEDBACK

Daily
Averages
Monthly
Summary
United Kingdom

BIRMINGHAM, ENGLAND


Home > Europe > United Kingdom > England
Elevation: 325 feet     Latitude: 52 27N     Longitude: 001 44W

WEATHER
 
SELECT A DAY
Number of Records: 281,484;   Date Range: 7/1/96 - 8/29/14
 
SHARE

PRINT THIS DATA

[ ← Previous Day ]
WEATHER ALMANAC - SEPTEMBER 21, 2013
[ Next Day → ]
[ °C ]   °F
Weather ElementAverageHighLow
Temperature58.9 °F69.8 °F (3:50 pm)50 °F (2:50 am)
Dewpoint54.9 °F62.6 °F (6:20 pm)46.4 °F (2:50 am)
Humidity86.8 %94 % (4:20 am)73 % (3:50 pm)
Barometer30.19 in30.27 in (9:50 pm)30.15 in (1:20 am)
Wind Speed6.6 mph9.2 mph (10:50 am)
Wind Gust20.7 mph (4:20 pm)
Weather ElementAverage
Visibility6.2 mi
Wind DirectionS (179.8 °)

Weather ElementTotal
Precipitation---
Heating Degree Days5.1 (Base 65)
Growing Degree Days9.9 (Base 50)
Averaged from 47 records on September 21, 2013
WEATHER CONDITIONS BREAKOUT
WIND DIRECTION BREAKOUT
WEATHER BY HOUR - SEPTEMBER 21, 2013
[ °C ]   °F
Local TimeTemperatureDewpointHumidityBarometerVisibilityWind DirectionWind SpeedGust SpeedPrecipitationEventsConditions
12:50 AM51.8 °F48.2 °F88 %30.18 inWSW (240°)4.6 mphClear
1:20 AM51.8 °F48.2 °F88 %30.15 inVariable3.5 mphClear
1:50 AM51.8 °F48.2 °F88 %30.18 in6.2 miSW (220°)3.5 mph
2:20 AM51.8 °F48.2 °F88 %30.18 in6.2 miSW (230°)4.6 mphMostly Cloudy
2:50 AM50.0 °F46.4 °F87 %30.15 in6.2 miSouth (170°)6.9 mph
3:20 AM51.8 °F48.2 °F88 %30.18 inSSW (200°)4.6 mphClear
3:50 AM51.8 °F48.2 °F88 %30.15 inSouth (180°)4.6 mphClear
4:20 AM50.0 °F48.2 °F94 %30.15 inSouth (180°)4.6 mphClear
4:50 AM50.0 °F48.2 °F94 %30.15 inSouth (170°)4.6 mphClear
5:20 AM50.0 °F48.2 °F94 %30.15 inSE (140°)4.6 mphClear
5:50 AM50.0 °F48.2 °F94 %30.15 in6.2 miSouth (170°)4.6 mphPartly Cloudy
6:20 AM51.8 °F48.2 °F88 %30.15 in6.2 miSouth (170°)4.6 mphScattered Clouds
6:50 AM51.8 °F48.2 °F88 %30.15 in6.2 miVariable3.5 mphMostly Cloudy
7:20 AM51.8 °F48.2 °F88 %30.15 in6.2 miSSW (200°)4.6 mphOvercast
7:50 AM51.8 °F48.2 °F88 %30.15 in6.2 miSSE (160°)4.6 mphOvercast
8:20 AM51.8 °F48.2 °F88 %30.15 in6.2 miSouth (170°)4.6 mphOvercast
8:50 AM53.6 °F50.0 °F88 %30.18 in6.2 miSSE (160°)5.8 mphOvercast
9:20 AM53.6 °F50.0 °F88 %30.18 in6.2 miSSE (160°)5.8 mphMostly Cloudy
9:50 AM55.4 °F50.0 °F82 %30.18 in6.2 miSouth (180°)6.9 mphOvercast
10:20 AM57.2 °F51.8 °F82 %30.18 in6.2 miSouth (190°)6.9 mphOvercast
10:50 AM59.0 °F53.6 °F82 %30.18 in6.2 miSSW (200°)9.2 mphOvercast
11:20 AM59.0 °F55.4 °F88 %30.18 in6.2 miSouth (190°)9.2 mphOvercast
11:50 AM60.8 °F55.4 °F82 %30.18 in6.2 miSSW (200°)9.2 mphMostly Cloudy
12:20 PM62.6 °F57.2 °F82 %30.18 in6.2 miSW (220°)9.2 mphMostly Cloudy
12:50 PM62.6 °F57.2 °F82 %30.21 in6.2 miSSW (200°)8.1 mphMostly Cloudy
1:20 PM62.6 °F57.2 °F82 %30.21 in6.2 miSouth (190°)6.9 mphOvercast
1:50 PM62.6 °F57.2 °F82 %30.21 in6.2 miSouth (180°)8.1 mphOvercast
2:20 PM64.4 °F59.0 °F83 %30.21 in6.2 miSSW (200°)6.9 mphMostly Cloudy
2:50 PM66.2 °F59.0 °F78 %30.21 in6.2 miSSW (210°)6.9 mphMostly Cloudy
3:20 PM68.0 °F60.8 °F78 %30.21 in6.2 miVariable9.2 mphScattered Clouds
3:50 PM69.8 °F60.8 °F73 %30.18 in6.2 miSSW (210°)8.1 mphScattered Clouds
4:20 PM69.8 °F60.8 °F73 %30.18 in6.2 miSSW (210°)9.2 mph20.7 mphScattered Clouds
4:50 PM68.0 °F60.8 °F78 %30.18 in6.2 miSSW (210°)9.2 mphScattered Clouds
5:20 PM68.0 °F60.8 °F78 %30.18 in6.2 miSSW (200°)9.2 mphScattered Clouds
5:50 PM68.0 °F60.8 °F78 %30.21 in6.2 miSSW (200°)9.2 mphScattered Clouds
6:20 PM68.0 °F62.6 °F83 %30.21 in6.2 miSouth (180°)8.1 mphScattered Clouds
6:50 PM66.2 °F62.6 °F88 %30.21 in6.2 miSouth (180°)6.9 mphPartly Cloudy
7:20 PM62.6 °F60.8 °F94 %30.21 in6.2 miSSE (160°)6.9 mphPartly Cloudy
7:50 PM62.6 °F60.8 °F94 %30.24 in6.2 miSouth (190°)6.9 mphPartly Cloudy
8:20 PM64.4 °F62.6 °F94 %30.24 in6.2 miVariable5.8 mphScattered Clouds
8:50 PM64.4 °F62.6 °F94 %30.24 in6.2 miSW (230°)8.1 mphMostly Cloudy
9:20 PM62.6 °F60.8 °F94 %30.24 in6.2 miSW (220°)6.9 mphMostly Cloudy
9:50 PM62.6 °F60.8 °F94 %30.27 inSW (230°)6.9 mphClear
10:20 PM62.6 °F60.8 °F94 %30.27 inSW (230°)9.2 mphClear
10:50 PM60.8 °F59.0 °F94 %30.27 inWSW (240°)8.1 mphClear
11:20 PM60.8 °F59.0 °F94 %30.27 inWSW (240°)5.8 mphClear
11:50 PM60.8 °F59.0 °F94 %30.27 inWSW (240°)6.9 mphClear
Hourly data recorded from EGBB, located miles away from Birmingham, England







STORIES FROM OUR PARTNERS